STARLINK-3848, 52362

Orbit data source: Space-Track

STARLINK-3848, 52362 is a payload satellite owned by SpaceX/Seattle (US) in LEO that was launched on Fri, 29 Apr 2022 UTC via an FALCON 9 launch vehicle from the Air Force Eastern Test Range (AFETR). Payload-class satellites include a variety of spacecraft equipped with specific instruments for various scientific and technological missions. These include communications satellites like Starlink; space stations such as the ISS; scientific satellites like the Hubble; Earth observation satellites from companies like Planet Labs, Umbra, and HawkEye 360; GPS; miniature CubeSats for education and research; and military/defense satellites.

Loading next visibility...
Identifier
52362, 2022-045AH
Orbit
LEO
Country
Flag of USUS
Related business
Manufacturer
SpaceX/Seattle
Mission
Operational Commercial Communications
Bus & Motor
STARLINK, Unknown motor
Mass
297 kg wet, ~275 kg dry
Launch date (UTC)
2022-04-29 (4 years ago)
Launch vehicle
FALCON 9
Launch site
Air Force Eastern Test Range (AFETR)
Object type
Payload
Rocket body
Debris
Shape & HBR
Box + 1 Pan, 10.1 m
Radar Cross Section
11.087 m², Large (>1 m²)

Expand to show TLE details & history
Last TLE update: 2 days ago

TLE from 2 days ago
0 STARLINK-3848
1 52362U 22045AH  26171.41668980  .00039729  00000-0  19052-2 0  9999
2 52362  53.1601  87.6653 0001803 111.9667 120.3515 15.18541347  5678
Epoch: 2026-06-20T10:00Z
TLE epoch observation values (Epoch: 2026-06-20T10:00:01.998Z)
Latitude
-39.51506°
Longitude
-113.05806°
Altitude
523.848 km
Speed
7.601 km/s
True Right ascension
20h 22m 19s
True Declination
-39° 20' 26"
Sunlit
Object was in full shadow at epoch
Visualization orbit readout
Latitude
Unknown
Longitude
Unknown
Altitude
Unknown
Speed
Unknown
Apparent Right ascension
Unknown
Apparent Declination
Unknown
Sunlit
N/A
Visualization observer readout
Local Sidereal Time
21:49:46
Azimuth
Unknown
Elevation
Unknown
Doppler factor
Unknown
Orbital elements
Apogee altitude
511.745 km
Perigee altitude
509.261 km
Semi-major axis
6,888.64 km
Eccentricity
0.00018
Inclination
53.1601°
RAAN
87.6653°
Arg. of periapsis
111.9667°
True anomaly
120.36933°
Mean anomaly
120.3515°
Eccentric anomaly
120.36041°
Mean motion
3.79615 °/min
Orbital period
94.83 mins
BSTAR
0.0019052
Loading maneuver chart data...
Computing Atmospheric mass density...

Documentation

Showing up to 5 results
|